This demonstration page uses our WeatherBlox Daily Observations layout. Learn more.

Left ArrowRight Arrow

Hourly Observations for January 22, 2022

Temp ( °F °C ) Dew Point ( °F °C ) Humidity (%) Winds ( mph kmh ) Pressure ( in mb ) Visibility ( mi km ) Precip ( " mm )
12:53 am 00:53 Cloudy 32 0 27 -2.8 82 82 Calm 30.31 1026 10 16 0.00 0.00
1:53 am 01:53 Cloudy 32 0 28 -2.2 85 85 NW 5 7 30.31 1027 10 16 0.00 0.00
2:53 am 02:53 Cloudy 33 0.6 28 -2.2 82 82 Calm 30.32 1027 10 16 0.00 0.00
3:00 am 03:00 Cloudy 32 0 28 -2.2 85 85 NNW 3 6 30.35 1028 10 16 0.00 0.00
3:53 am 03:53 Cloudy 32 0 27 -2.8 82 82 NW 3 6 30.33 1027 10 16 0.00 0.00
4:53 am 04:53 Cloudy 32 0 27 -2.8 82 82 NNW 3 6 30.32 1027 10 16 0.00 0.00
5:49 am 05:49 Cloudy 32 0 27 -3 80 80 NNW 3 6 30.36 1028 10 16 0.00 0.00
5:53 am 05:53 Cloudy 32 0 27 -2.8 82 82 Calm 30.33 1027 10 16 0.00 0.00
6:53 am 06:53 Cloudy 32 0 27 -2.8 82 82 NW 3 6 30.35 1028 10 16 0.00 0.00
7:00 am 07:00 Cloudy 32 0 27 -2.8 82 82 NW 6 9 30.38 1029 10 16 0.00 0.00
7:53 am 07:53 Cloudy 31 -0.6 26 -3.3 82 82 NW 3 6 30.37 1028 10 16 0.00 0.00
8:27 am 08:27 Cloudy 32 0 26 -3.3 79 79 N 3 6 30.41 1030 10 16 0.00 0.00
8:53 am 08:53 Mostly Cloudy 31 -0.6 26 -3.3 82 82 Calm 30.37 1028 10 16 0.00 0.00
9:53 am 09:53 Mostly Cloudy 33 0.6 28 -2.2 82 82 Calm 30.38 1029 10 16 0.00 0.00
10:53 am 10:53 Mostly Cloudy 35 1.7 28 -2.2 76 76 Calm 30.38 1029 10 16 0.00 0.00
11:07 am 11:07 Mostly Cloudy 37 2.8 27 -2.8 67 67 WNW 6 9 30.41 1030 10 16 0.00 0.00
11:53 am 11:53 Cloudy 38 3.3 27 -2.8 65 65 Calm 30.38 1029 10 16 0.00 0.00
12:40 pm 12:40 Mostly Sunny 40 4.4 26 -3.3 58 58 VRB 6 9 30.36 1028 10 16 0.00 0.00
12:53 pm 12:53 Mostly Sunny 41 5 27 -2.8 57 57 undefined N/A 30.34 1027 10 16 0.00 0.00
1:53 pm 13:53 Sunny 41 5 26 -3.3 55 55 Calm 30.30 1026 10 16 0.00 0.00
2:53 pm 14:53 Sunny 44 6.7 25 -3.9 47 47 VRB 7 11 30.28 1025 10 16 0.00 0.00
3:53 pm 15:53 Sunny 44 6.7 25 -3.9 47 47 WNW 3 6 30.26 1025 10 16 0.00 0.00
4:53 pm 16:53 Mostly Sunny 44 6.7 23 -5 43 43 NW 9 15 30.25 1024 10 16 0.00 0.00
5:53 pm 17:53 Sunny 40 4.4 24 -4.4 53 53 Calm 30.25 1024 10 16 0.00 0.00
6:53 pm 18:53 Clear 37 2.8 24 -4.4 59 59 N 3 6 30.26 1025 10 16 0.00 0.00
7:53 pm 19:53 Clear 34 1.1 24 -4.4 67 67 Calm 30.26 1025 10 16 0.00 0.00
8:53 pm 20:53 Clear 32 0 24 -4.4 73 73 Calm 30.26 1025 10 16 0.00 0.00
9:53 pm 21:53 Clear 31 -0.6 25 -3.9 79 79 Calm 30.26 1025 10 16 0.00 0.00
10:53 pm 22:53 Clear 28 -2.2 23 -5 81 81 Calm 30.25 1024 10 16 0.00 0.00
11:53 pm 23:53 Clear 27 -2.8 24 -4.4 89 89 Calm 30.23 1024 10 16 0.00 0.00

Powered by AerisWeather